Weather History for Tehachapi, CA

Change the Weather History Date:

Wednesday, September 11, 2013

  Actual Average Record
Temperature  
Mean Temperature 68 °F -  
Max Temperature 80 °F 79 °F 89 °F (2014)
Min Temperature 55 °F 51 °F 48 °F (2014)
Cooling Degree Days 2    
Growing Degree Days 18 (Base 50)    
Moisture  
Dew Point 41 °F    
Average Humidity 39    
Maximum Humidity 59    
Minimum Humidity 24    
Precipitation  
Precipitation 0.00 in - - ()
Sea Level Pressure  
Sea Level Pressure 30.07 in    
Wind  
Wind Speed 7 mph (WNW)    
Max Wind Speed 18 mph    
Max Gust Speed 26 mph    
Visibility 10 miles    
Events      
Averages and records for this station are not official NWS values.
T = Trace of Precipitation, MM = Missing Value Source: NWS Daily Summary

Daily Weather History Graph

Daily Weather History Graph

Search for Another Location

Airport:

Trip Planner

Search our weather history database for the weather conditions in past years. The results will help you decide how hot, cold, wet, or windy it might be!

Date:

Astronomy

Sep. 11, 2013 Rise Set
Actual Time 6:33 AM PDT 7:05 PM PDT
Civil Twilight 6:08 AM PDT 7:31 PM PDT
Nautical Twilight 5:38 AM PDT 8:01 PM PDT
Astronomical Twilight 5:07 AM PDT 8:31 PM PDT
Moon 12:52 PM PDT (9/11) 11:21 PM PDT (9/11)
Length of Visible Light 13h 23m
Length of Day
12h 32m
Waxing Crescent, 40% of the Moon is Illuminated
Sep 11
Waxing Crescent
Sep 12
First Quarter
Sep 19
Full
Sep 26
Last Quarter
Oct 4
New

Hourly Weather History & Observations

Time (PDT) Temp. Dew Point Humidity Pressure Visibility Wind Dir Wind Speed Gust Speed Precip Events Conditions
12:15 AM 64.4 °F 41.0 °F 42% 30.04 in 10.0 mi West 6.9 mph - N/A   Clear
12:35 AM 62.6 °F 41.0 °F 45% 30.04 in 10.0 mi WNW 8.1 mph - N/A   Clear
12:55 AM 64.4 °F 39.2 °F 40% 30.04 in 10.0 mi Calm Calm - N/A   Clear
1:15 AM 60.8 °F 39.2 °F 45% 30.04 in 10.0 mi West 3.5 mph - N/A   Clear
1:35 AM 62.6 °F 39.2 °F 42% 30.04 in 10.0 mi West 3.5 mph - N/A   Clear
1:55 AM 62.6 °F 39.2 °F 42% 30.05 in 10.0 mi NW 3.5 mph - N/A   Clear
2:15 AM 62.6 °F 39.2 °F 42% 30.05 in 10.0 mi Calm Calm - N/A   Clear
2:35 AM 60.8 °F 39.2 °F 45% 30.05 in 10.0 mi Calm Calm - N/A   Clear
2:55 AM 62.6 °F 39.2 °F 42% 30.05 in 10.0 mi Calm Calm - N/A   Clear
3:15 AM 60.8 °F 39.2 °F 45% 30.05 in 10.0 mi WSW 4.6 mph - N/A   Clear
3:35 AM 59.0 °F 39.2 °F 48% 30.05 in 10.0 mi WSW 5.8 mph - N/A   Clear
3:55 AM 59.0 °F 39.2 °F 48% 30.05 in 10.0 mi Calm Calm - N/A   Clear
4:15 AM 59.0 °F 39.2 °F 48% 30.05 in 10.0 mi Calm Calm - N/A   Clear
4:35 AM 59.0 °F 39.2 °F 48% 30.05 in 10.0 mi Calm Calm - N/A   Clear
4:55 AM 59.0 °F 39.2 °F 48% 30.05 in 10.0 mi Calm Calm - N/A   Clear
5:15 AM 59.0 °F 39.2 °F 48% 30.06 in 10.0 mi Calm Calm - N/A   Clear
5:35 AM 57.2 °F 37.4 °F 48% 30.06 in 10.0 mi West 3.5 mph - N/A   Clear
5:55 AM 57.2 °F 37.4 °F 48% 30.06 in 10.0 mi Calm Calm - N/A   Clear
6:15 AM 57.2 °F 37.4 °F 48% 30.07 in 10.0 mi Calm Calm - N/A   Clear
6:35 AM 57.2 °F 37.4 °F 48% 30.07 in 10.0 mi Calm Calm - N/A   Clear
6:55 AM 55.4 °F 39.2 °F 54% 30.07 in 10.0 mi Calm Calm - N/A   Clear
7:15 AM 59.0 °F 39.2 °F 48% 30.08 in 10.0 mi Calm Calm - N/A   Clear
7:35 AM 62.6 °F 39.2 °F 42% 30.08 in 10.0 mi WSW 4.6 mph - N/A   Clear
7:55 AM 62.6 °F 41.0 °F 45% 30.08 in 10.0 mi West 3.5 mph - N/A   Clear
8:15 AM 66.2 °F 39.2 °F 37% 30.08 in 10.0 mi NW 8.1 mph - N/A   Clear
8:35 AM 68.0 °F 39.2 °F 35% 30.09 in 10.0 mi NW 11.5 mph - N/A   Clear
8:55 AM 68.0 °F 39.2 °F 35% 30.09 in 10.0 mi NW 12.7 mph - N/A   Clear
9:15 AM 71.6 °F 39.2 °F 31% 30.09 in 9.0 mi NNW 11.5 mph - N/A   Clear
9:35 AM 71.6 °F 39.2 °F 31% 30.10 in 10.0 mi NW 13.8 mph - N/A   Clear
9:55 AM 71.6 °F 41.0 °F 33% 30.10 in 10.0 mi NW 12.7 mph - N/A   Clear
10:15 AM 71.6 °F 39.2 °F 31% 30.10 in 10.0 mi NW 15.0 mph - N/A   Clear
10:35 AM 73.4 °F 39.2 °F 29% 30.10 in 10.0 mi NW 12.7 mph - N/A   Clear
10:55 AM 75.2 °F 39.2 °F 27% 30.10 in 10.0 mi NW 13.8 mph - N/A   Clear
11:15 AM 73.4 °F 39.2 °F 29% 30.10 in 10.0 mi NNW 13.8 mph 18.4 mph N/A   Clear
11:35 AM 75.2 °F 39.2 °F 27% 30.10 in 10.0 mi NW 13.8 mph - N/A   Clear
11:55 AM 75.2 °F 39.2 °F 27% 30.10 in 10.0 mi NNW 15.0 mph - N/A   Clear
12:15 PM 75.2 °F 39.2 °F 27% 30.09 in 10.0 mi NW 15.0 mph 21.9 mph N/A   Clear
12:35 PM 75.2 °F 39.2 °F 27% 30.09 in 10.0 mi NW 16.1 mph - N/A   Clear
12:55 PM 75.2 °F 39.2 °F 27% 30.09 in 10.0 mi NNW 18.4 mph - N/A   Clear
1:15 PM 75.2 °F 39.2 °F 27% 30.08 in 10.0 mi NW 15.0 mph - N/A   Clear
1:35 PM 77.0 °F 39.2 °F 26% 30.08 in 9.0 mi NW 17.3 mph - N/A   Clear
1:55 PM 78.8 °F 41.0 °F 26% 30.07 in 10.0 mi NW 17.3 mph 23.0 mph N/A   Clear
2:15 PM 80.6 °F 41.0 °F 24% 30.07 in 10.0 mi NW 17.3 mph 23.0 mph N/A   Clear
2:35 PM 80.6 °F 42.8 °F 26% 30.07 in 10.0 mi NW 18.4 mph 26.5 mph N/A   Clear
2:55 PM 77.0 °F 42.8 °F 29% 30.07 in 10.0 mi NW 18.4 mph 23.0 mph N/A   Clear
3:15 PM 77.0 °F 42.8 °F 29% 30.06 in 10.0 mi NNW 17.3 mph 24.2 mph N/A   Clear
3:35 PM 77.0 °F 42.8 °F 29% 30.06 in 10.0 mi NW 17.3 mph 24.2 mph N/A   Clear
3:55 PM 77.0 °F 41.0 °F 28% 30.06 in 10.0 mi NW 17.3 mph - N/A   Clear
4:15 PM 78.8 °F 41.0 °F 26% 30.06 in 10.0 mi NW 17.3 mph 25.3 mph N/A   Clear
4:35 PM 78.8 °F 42.8 °F 28% 30.06 in 10.0 mi NW 16.1 mph 21.9 mph N/A   Clear
4:55 PM 75.2 °F 44.6 °F 34% 30.07 in 10.0 mi NW 15.0 mph - N/A   Clear
5:15 PM 77.0 °F 44.6 °F 32% 30.07 in 10.0 mi WNW 17.3 mph 21.9 mph N/A   Clear
5:35 PM 75.2 °F 42.8 °F 31% 30.07 in 10.0 mi NW 11.5 mph - N/A   Clear
5:55 PM 75.2 °F 42.8 °F 31% 30.07 in 10.0 mi NW 12.7 mph 17.3 mph N/A   Clear
6:15 PM 73.4 °F 42.8 °F 33% 30.07 in 10.0 mi NW 12.7 mph - N/A   Clear
6:35 PM 73.4 °F 41.0 °F 31% 30.07 in 10.0 mi NW 11.5 mph - N/A   Clear
6:55 PM 71.6 °F 41.0 °F 33% 30.08 in 10.0 mi NW 13.8 mph - N/A   Clear
7:15 PM 69.8 °F 42.8 °F 38% 30.08 in 10.0 mi WNW 10.4 mph - N/A   Clear
7:35 PM 68.0 °F 42.8 °F 40% 30.08 in 10.0 mi NW 10.4 mph - N/A   Clear
7:55 PM 66.2 °F 42.8 °F 43% 30.08 in 10.0 mi WNW 6.9 mph - N/A   Clear
8:15 PM 64.4 °F 42.8 °F 45% 30.09 in 10.0 mi WNW 4.6 mph - N/A   Clear
8:35 PM 64.4 °F 42.8 °F 45% 30.09 in 10.0 mi WNW 5.8 mph - N/A   Clear
8:55 PM 64.4 °F 42.8 °F 45% 30.09 in 10.0 mi West 5.8 mph - N/A   Clear
9:15 PM 62.6 °F 41.0 °F 45% 30.09 in 10.0 mi NNW 5.8 mph - N/A   Clear
9:35 PM 62.6 °F 42.8 °F 48% 30.09 in 10.0 mi WNW 6.9 mph - N/A   Clear
9:55 PM 62.6 °F 42.8 °F 48% 30.09 in 10.0 mi West 6.9 mph - N/A   Clear
10:15 PM 62.6 °F 42.8 °F 48% 30.09 in 10.0 mi West 4.6 mph - N/A   Clear
10:35 PM 60.8 °F 42.8 °F 52% 30.09 in 10.0 mi West 4.6 mph - N/A   Clear
10:55 PM 60.8 °F 44.6 °F 55% 30.09 in 10.0 mi West 4.6 mph - N/A   Clear
11:15 PM 59.0 °F 44.6 °F 59% 30.09 in 10.0 mi West 5.8 mph - N/A   Clear
11:35 PM 59.0 °F 42.8 °F 55% 30.10 in 10.0 mi West 4.6 mph - N/A   Clear
11:55 PM 59.0 °F 42.8 °F 55% 30.09 in 10.0 mi West 5.8 mph - N/A   Clear